Flag Weather past 2 weeks in Racine, Wisconsin, U.S.A.

Now
18 °F

Overcast.


Feels Like: 11 °F
Forecast: 11 / 34 °F
Wind: 5 mph from South

Location: Batten International Airport

Current Time: Nov 28, 2014 at 6:20:45 AM

Latest Report: Nov 28, 2014 at 5:53 AM


Visibility: 10 mi

Pressure: 30.33 "Hg

Humidity: 68%

Dew point: 9 °F

Location of RacineLocation

Historic Weather in Racine — Graph

°F

Racine temperature yesterday

Maximum temperature yesterday: 24 °F (at 4:53 AM)
Minimum temperature yesterday: 12 °F (at 9:53 PM)
Average temperature yesterday: 20 °F

Past Weeks' High & Low Weather Summary

 TemperatureHumidityPressure
High50 °F (Nov 23, 12:53 AM)96% (Nov 23, 7:53 PM)30.49 "Hg (Nov 23, 7:53 PM)
Low8 °F (Nov 17, 5:53 AM)29% (Nov 21, 2:53 PM)29.06 "Hg (Nov 24, 2:01 AM)
Average25 °F72%30.05 "Hg
* Reported Nov 13 4:53 AM — Nov 28 4:53 AM, Racine, Weather by CustomWeather, © 2014

Note: Actual official high and low records may vary slightly from our data, if they occured in-between our weather recording intervals... More about our weather records

Advertising

Racine weather history for previous 24 hours

 ConditionsComfort  
Time TempWeatherWind HumidityBarometerVisibility
4:53 AM
Nov 28
16 °FMostly cloudy.No wind74%30.36 "Hg10 mi
3:53 AM15 °FOvercast.No wind74%30.40 "Hg10 mi
2:53 AM14 °FOvercast.5 mph77%30.42 "Hg10 mi
1:53 AM13 °FPassing clouds.5 mph81%30.41 "Hg10 mi
12:53 AM13 °FClear.3 mph81%30.40 "Hg10 mi
11:53 PM
Nov 27
13 °FClear.No wind77%30.42 "Hg10 mi
10:53 PM12 °FClear.5 mph77%30.43 "Hg10 mi
9:53 PM12 °FClear.5 mph77%30.44 "Hg10 mi
8:53 PM13 °FClear.3 mph77%30.43 "Hg10 mi
7:53 PM14 °FClear.3 mph73%30.44 "Hg10 mi
6:53 PM16 °FClear.5 mph71%30.45 "Hg10 mi
5:53 PM17 °FPassing clouds.7 mph68%30.45 "Hg10 mi
4:53 PM19 °FPassing clouds.7 mph65%30.44 "Hg10 mi
3:53 PM21 °FMore clouds than sun.9 mph68%30.42 "Hg10 mi
2:53 PM22 °FOvercast.10 mph60%30.39 "Hg10 mi
1:53 PM22 °FOvercast.8 mph66%30.38 "Hg10 mi
12:53 PM23 °FPartly sunny.9 mph68%30.37 "Hg10 mi
11:53 AM22 °FPartly sunny.13 mph72%30.37 "Hg10 mi
10:53 AM23 °FOvercast.9 mph74%30.37 "Hg10 mi
9:53 AM23 °FMostly cloudy.14 mph74%30.37 "Hg10 mi
8:53 AM23 °FPassing clouds.16 mph78%30.34 "Hg10 mi
7:53 AM23 °FMore clouds than sun.9 mph81%30.32 "Hg10 mi
6:53 AM24 °FOvercast.12 mph77%30.29 "Hg10 mi
Weather by CustomWeather, © 2014

See weather overviewHow to use our weather pages